ラ・サグラ彗星

P/2009 T2 ( La Sagra )

English version
Home page
Updated on October 3, 2010

---------------------------------------------------------------------

・ プロフィール

発見日 2009年10月12日
発見光度 17.0等
発見者 J. Nomen (La Sagra Sky Survey)

・ 写真集

・ 軌道要素

Epoch 2010 Jan. 4.0 TT = JDT 2455200.5
T 2010 Jan. 12.84694 TT                                 MPC
q   1.7548249            (2000.0)            P               Q
n   0.04703473     Peri.  215.47251     +0.35822435     -0.89164663
a   7.6007592      Node   215.98515     +0.92779829     +0.37308068
e   0.7691250      Incl.   28.10963     +0.10423844     -0.25647046
P  20.95

・ 星図

・ 光度変化

        m1 = 11 + 5 logΔ + 20 log r(t + 10)

---------------------------------------------------------------------

軌道要素はM.P.E.C. 2009-W142に掲載されたものです。
星図はステラナビゲータ Ver.8 (アストロアーツ) で作成したものです。
光度グラフはComet for Windowsで作成したものです。

---------------------------------------------------------------------

Copyright(C) Seiichi Yoshida (comet@aerith.net). All rights reserved.